Year,Month,Day,Hour,Minute,Value (Times are PST for temperature in C)
2009,05,19,00,00,9.10
2009,05,19,00,01,9.10
2009,05,19,00,02,9.10
2009,05,19,00,03,9.10
2009,05,19,00,04,9.10
2009,05,19,00,05,9.10
2009,05,19,00,06,9.10
2009,05,19,00,07,9.10
2009,05,19,00,08,9.10
2009,05,19,00,09,9.10
2009,05,19,00,10,9.10
2009,05,19,00,11,9.10
2009,05,19,00,12,9.10
2009,05,19,00,13,9.00
2009,05,19,00,14,9.00
2009,05,19,00,15,9.00
2009,05,19,00,16,9.00
2009,05,19,00,17,9.00
2009,05,19,00,18,9.00
2009,05,19,00,19,8.90
2009,05,19,00,20,8.90
2009,05,19,00,21,8.90
2009,05,19,00,22,8.90
2009,05,19,00,23,8.90
2009,05,19,00,24,8.80
2009,05,19,00,25,8.80
2009,05,19,00,26,8.80
2009,05,19,00,27,8.70
2009,05,19,00,28,8.70
2009,05,19,00,29,8.70
2009,05,19,00,30,8.60
2009,05,19,00,31,8.60
2009,05,19,00,32,8.60
2009,05,19,00,33,8.50
2009,05,19,00,34,8.50
2009,05,19,00,35,8.40
2009,05,19,00,36,8.40
2009,05,19,00,37,8.30
2009,05,19,00,38,8.30
2009,05,19,00,39,8.30
2009,05,19,00,40,8.30
2009,05,19,00,41,8.30
2009,05,19,00,42,8.20
2009,05,19,00,43,8.20
2009,05,19,00,44,8.20
2009,05,19,00,45,8.20
2009,05,19,00,46,8.20
2009,05,19,00,47,8.20
2009,05,19,00,48,8.20
2009,05,19,00,49,8.20
2009,05,19,00,50,8.20
2009,05,19,00,51,8.20
2009,05,19,00,52,8.20
2009,05,19,00,53,8.10
2009,05,19,00,54,8.10
2009,05,19,00,55,8.10
2009,05,19,00,56,8.10
2009,05,19,00,57,8.10
2009,05,19,00,58,8.10
2009,05,19,00,59,8.10
2009,05,19,01,00,8.10
2009,05,19,01,01,8.10
2009,05,19,01,02,8.10
2009,05,19,01,03,8.10
2009,05,19,01,04,8.10
2009,05,19,01,05,8.10
2009,05,19,01,06,8.10
2009,05,19,01,07,8.10
2009,05,19,01,08,8.10
2009,05,19,01,09,8.00
2009,05,19,01,10,8.00
2009,05,19,01,11,8.00
2009,05,19,01,12,8.00
2009,05,19,01,13,8.00
2009,05,19,01,14,8.00
2009,05,19,01,15,8.00
2009,05,19,01,16,8.00
2009,05,19,01,17,8.00
2009,05,19,01,18,8.00
2009,05,19,01,19,7.90
2009,05,19,01,20,7.90
2009,05,19,01,21,7.90
2009,05,19,01,22,7.90
2009,05,19,01,23,7.90
2009,05,19,01,24,7.80
2009,05,19,01,25,7.80
2009,05,19,01,26,7.80
2009,05,19,01,27,7.80
2009,05,19,01,28,7.80
2009,05,19,01,29,7.80
2009,05,19,01,30,7.80
2009,05,19,01,31,7.80
2009,05,19,01,32,7.80
2009,05,19,01,33,7.80
2009,05,19,01,34,7.80
2009,05,19,01,35,7.80
2009,05,19,01,36,7.80
2009,05,19,01,37,7.80
2009,05,19,01,38,7.80
2009,05,19,01,39,7.80
2009,05,19,01,40,7.80
2009,05,19,01,41,7.80
2009,05,19,01,42,7.80
2009,05,19,01,43,7.80
2009,05,19,01,44,7.80
2009,05,19,01,45,7.80
2009,05,19,01,46,7.80
2009,05,19,01,47,7.80
2009,05,19,01,48,7.80
2009,05,19,01,49,7.80
2009,05,19,01,50,7.80
2009,05,19,01,51,7.80
2009,05,19,01,52,7.80
2009,05,19,01,53,7.80
2009,05,19,01,54,7.70
2009,05,19,01,55,7.70
2009,05,19,01,56,7.70
2009,05,19,01,57,7.70
2009,05,19,01,58,7.70
2009,05,19,01,59,7.60
2009,05,19,02,00,7.60
2009,05,19,02,01,7.50
2009,05,19,02,02,7.50
2009,05,19,02,03,7.40
2009,05,19,02,04,7.40
2009,05,19,02,05,7.30
2009,05,19,02,06,7.30
2009,05,19,02,07,7.30
2009,05,19,02,08,7.20
2009,05,19,02,09,7.20
2009,05,19,02,10,7.20
2009,05,19,02,11,7.20
2009,05,19,02,12,7.10
2009,05,19,02,13,7.10
2009,05,19,02,14,7.10
2009,05,19,02,15,7.10
2009,05,19,02,16,7.10
2009,05,19,02,17,7.10
2009,05,19,02,18,7.10
2009,05,19,02,19,7.10
2009,05,19,02,20,7.10
2009,05,19,02,21,7.10
2009,05,19,02,22,7.10
2009,05,19,02,23,7.10
2009,05,19,02,24,7.10
2009,05,19,02,25,7.10
2009,05,19,02,26,7.10
2009,05,19,02,27,7.10
2009,05,19,02,28,7.10
2009,05,19,02,29,7.10
2009,05,19,02,30,7.10
2009,05,19,02,31,7.10
2009,05,19,02,32,7.10
2009,05,19,02,33,7.10
2009,05,19,02,34,7.00
2009,05,19,02,35,7.00
2009,05,19,02,36,6.90
2009,05,19,02,37,6.90
2009,05,19,02,38,6.90
2009,05,19,02,39,6.80
2009,05,19,02,40,6.80
2009,05,19,02,41,6.80
2009,05,19,02,42,6.80
2009,05,19,02,43,6.80
2009,05,19,02,44,6.80
2009,05,19,02,45,6.80
2009,05,19,02,46,6.80
2009,05,19,02,47,6.90
2009,05,19,02,48,6.90
2009,05,19,02,49,6.90
2009,05,19,02,50,7.00
2009,05,19,02,51,7.10
2009,05,19,02,52,7.20
2009,05,19,02,53,7.20
2009,05,19,02,54,7.20
2009,05,19,02,55,7.20
2009,05,19,02,56,7.20
2009,05,19,02,57,7.20
2009,05,19,02,58,7.20
2009,05,19,02,59,7.30
2009,05,19,03,00,7.30
2009,05,19,03,01,7.30
2009,05,19,03,02,7.30
2009,05,19,03,03,7.40
2009,05,19,03,04,7.50
2009,05,19,03,05,7.60
2009,05,19,03,06,7.70
2009,05,19,03,07,7.70
2009,05,19,03,08,7.80
2009,05,19,03,09,7.80
2009,05,19,03,10,7.80
2009,05,19,03,11,7.80
2009,05,19,03,12,7.80
2009,05,19,03,13,7.80
2009,05,19,03,14,7.80
2009,05,19,03,15,7.80
2009,05,19,03,16,7.70
2009,05,19,03,17,7.60
2009,05,19,03,18,7.60
2009,05,19,03,19,7.50
2009,05,19,03,20,7.40
2009,05,19,03,21,7.40
2009,05,19,03,22,7.30
2009,05,19,03,23,7.30
2009,05,19,03,24,7.20
2009,05,19,03,25,7.20
2009,05,19,03,26,7.20
2009,05,19,03,27,7.10
2009,05,19,03,28,7.00
2009,05,19,03,29,7.00
2009,05,19,03,30,6.90
2009,05,19,03,31,6.90
2009,05,19,03,32,6.80
2009,05,19,03,33,6.80
2009,05,19,03,34,6.80
2009,05,19,03,35,6.80
2009,05,19,03,36,6.70
2009,05,19,03,37,6.70
2009,05,19,03,38,6.70
2009,05,19,03,39,6.70
2009,05,19,03,40,6.70
2009,05,19,03,41,6.60
2009,05,19,03,42,6.60
2009,05,19,03,43,6.60
2009,05,19,03,44,6.60
2009,05,19,03,45,6.60
2009,05,19,03,46,6.50
2009,05,19,03,47,6.50
2009,05,19,03,48,6.50
2009,05,19,03,49,6.40
2009,05,19,03,50,6.40
2009,05,19,03,51,6.30
2009,05,19,03,52,6.30
2009,05,19,03,53,6.30
2009,05,19,03,54,6.20
2009,05,19,03,55,6.20
2009,05,19,03,56,6.20
2009,05,19,03,57,6.10
2009,05,19,03,58,6.10
2009,05,19,03,59,6.10
2009,05,19,04,00,6.00
2009,05,19,04,01,6.00
2009,05,19,04,02,6.00
2009,05,19,04,03,6.00
2009,05,19,04,04,6.00
2009,05,19,04,05,6.00
2009,05,19,04,06,6.00
2009,05,19,04,07,5.90
2009,05,19,04,08,5.90
2009,05,19,04,09,5.90
2009,05,19,04,10,5.90
2009,05,19,04,11,5.90
2009,05,19,04,12,5.90
2009,05,19,04,13,5.90
2009,05,19,04,14,5.90
2009,05,19,04,15,5.90
2009,05,19,04,16,5.90
2009,05,19,04,17,5.90
2009,05,19,04,18,5.90
2009,05,19,04,19,5.90
2009,05,19,04,20,5.90
2009,05,19,04,21,5.90
2009,05,19,04,22,5.90
2009,05,19,04,23,6.00
2009,05,19,04,24,6.00
2009,05,19,04,25,6.10
2009,05,19,04,26,6.10
2009,05,19,04,27,6.10
2009,05,19,04,28,6.10
2009,05,19,04,29,6.10
2009,05,19,04,30,6.10
2009,05,19,04,31,6.10
2009,05,19,04,32,6.10
2009,05,19,04,33,6.10
2009,05,19,04,34,6.10
2009,05,19,04,35,6.10
2009,05,19,04,36,6.10
2009,05,19,04,37,6.10
2009,05,19,04,38,6.10
2009,05,19,04,39,6.10
2009,05,19,04,40,6.10
2009,05,19,04,41,6.10
2009,05,19,04,42,6.00
2009,05,19,04,43,6.00
2009,05,19,04,44,5.90
2009,05,19,04,45,5.90
2009,05,19,04,46,5.80
2009,05,19,04,47,5.80
2009,05,19,04,48,5.80
2009,05,19,04,49,5.90
2009,05,19,04,50,5.90
2009,05,19,04,51,5.90
2009,05,19,04,52,5.90
2009,05,19,04,53,5.90
2009,05,19,04,54,5.90
2009,05,19,04,55,5.90
2009,05,19,04,56,5.90
2009,05,19,04,57,5.90
2009,05,19,04,58,5.90
2009,05,19,04,59,6.00
2009,05,19,05,00,6.00
2009,05,19,05,01,6.00
2009,05,19,05,02,6.10
2009,05,19,05,03,6.00
2009,05,19,05,04,6.10
2009,05,19,05,05,6.10
2009,05,19,05,06,6.10
2009,05,19,05,07,6.10
2009,05,19,05,08,6.10
2009,05,19,05,09,6.10
2009,05,19,05,10,6.10
2009,05,19,05,11,6.10
2009,05,19,05,12,6.20
2009,05,19,05,13,6.20
2009,05,19,05,14,6.20
2009,05,19,05,15,6.20
2009,05,19,05,16,6.20
2009,05,19,05,17,6.20
2009,05,19,05,18,6.20
2009,05,19,05,19,6.20
2009,05,19,05,20,6.20
2009,05,19,05,21,6.20
2009,05,19,05,22,6.20
2009,05,19,05,23,6.10
2009,05,19,05,24,6.10
2009,05,19,05,25,6.10
2009,05,19,05,26,6.10
2009,05,19,05,27,6.00
2009,05,19,05,28,6.00
2009,05,19,05,29,6.00
2009,05,19,05,30,6.00
2009,05,19,05,31,6.00
2009,05,19,05,32,6.00
2009,05,19,05,33,6.00
2009,05,19,05,34,6.00
2009,05,19,05,35,6.00
2009,05,19,05,36,6.00
2009,05,19,05,37,6.10
2009,05,19,05,38,6.10
2009,05,19,05,39,6.10
2009,05,19,05,40,6.20
2009,05,19,05,41,6.20
2009,05,19,05,42,6.20
2009,05,19,05,43,6.20
2009,05,19,05,44,6.20
2009,05,19,05,45,6.20
2009,05,19,05,46,6.10
2009,05,19,05,47,6.00
2009,05,19,05,48,6.00
2009,05,19,05,49,5.90
2009,05,19,05,50,5.80
2009,05,19,05,51,5.80
2009,05,19,05,52,5.70
2009,05,19,05,53,5.70
2009,05,19,05,54,5.60
2009,05,19,05,55,5.60
2009,05,19,05,56,5.60
2009,05,19,05,57,5.50
2009,05,19,05,58,5.50
2009,05,19,05,59,5.50
2009,05,19,06,00,5.50
2009,05,19,06,01,5.50
2009,05,19,06,02,5.50
2009,05,19,06,03,5.50
2009,05,19,06,04,5.60
2009,05,19,06,05,5.60
2009,05,19,06,06,5.60
2009,05,19,06,07,5.60
2009,05,19,06,08,5.70
2009,05,19,06,09,5.70
2009,05,19,06,10,5.80
2009,05,19,06,11,5.80
2009,05,19,06,12,5.80
2009,05,19,06,13,5.80
2009,05,19,06,14,5.80
2009,05,19,06,15,5.90
2009,05,19,06,16,5.90
2009,05,19,06,17,5.90
2009,05,19,06,18,5.90
2009,05,19,06,19,5.90
2009,05,19,06,20,6.00
2009,05,19,06,21,6.00
2009,05,19,06,22,6.10
2009,05,19,06,23,6.10
2009,05,19,06,24,6.10
2009,05,19,06,25,6.20
2009,05,19,06,26,6.20
2009,05,19,06,27,6.30
2009,05,19,06,28,6.30
2009,05,19,06,29,6.30
2009,05,19,06,30,6.40
2009,05,19,06,31,6.40
2009,05,19,06,32,6.40
2009,05,19,06,33,6.50
2009,05,19,06,34,6.60
2009,05,19,06,35,6.60
2009,05,19,06,36,6.60
2009,05,19,06,37,6.70
2009,05,19,06,38,6.70
2009,05,19,06,39,6.70
2009,05,19,06,40,6.70
2009,05,19,06,41,6.70
2009,05,19,06,42,6.70
2009,05,19,06,43,6.70
2009,05,19,06,44,6.70
2009,05,19,06,45,6.70
2009,05,19,06,46,6.70
2009,05,19,06,47,6.70
2009,05,19,06,48,6.70
2009,05,19,06,49,6.70
2009,05,19,06,50,6.70
2009,05,19,06,51,6.70
2009,05,19,06,52,6.70
2009,05,19,06,53,6.80
2009,05,19,06,54,6.80
2009,05,19,06,55,6.80
2009,05,19,06,56,6.90
2009,05,19,06,57,7.00
2009,05,19,06,58,7.10
2009,05,19,06,59,7.20
2009,05,19,07,00,7.20
2009,05,19,07,01,7.30
2009,05,19,07,02,7.40
2009,05,19,07,03,7.50
2009,05,19,07,04,7.60
2009,05,19,07,05,7.70
2009,05,19,07,06,7.80
2009,05,19,07,07,7.90
2009,05,19,07,08,8.00
2009,05,19,07,09,8.10
2009,05,19,07,10,8.20
2009,05,19,07,11,8.20
2009,05,19,07,12,8.30
2009,05,19,07,13,8.30
2009,05,19,07,14,8.30
2009,05,19,07,15,8.40
2009,05,19,07,16,8.40
2009,05,19,07,17,8.50
2009,05,19,07,18,8.60
2009,05,19,07,19,8.70
2009,05,19,07,20,8.70
2009,05,19,07,21,8.80
2009,05,19,07,22,8.90
2009,05,19,07,23,9.00
2009,05,19,07,24,9.10
2009,05,19,07,25,9.20
2009,05,19,07,26,9.20
2009,05,19,07,27,9.30
2009,05,19,07,28,9.40
2009,05,19,07,29,9.40
2009,05,19,07,30,9.50
2009,05,19,07,31,9.60
2009,05,19,07,32,9.70
2009,05,19,07,33,9.80
2009,05,19,07,34,9.90
2009,05,19,07,35,9.90
2009,05,19,07,36,10.10
2009,05,19,07,37,10.10
2009,05,19,07,38,10.30
2009,05,19,07,39,10.40
2009,05,19,07,40,10.50
2009,05,19,07,41,10.70
2009,05,19,07,42,10.80
2009,05,19,07,43,10.90
2009,05,19,07,44,11.00
2009,05,19,07,45,11.20
2009,05,19,07,46,11.30
2009,05,19,07,47,11.40
2009,05,19,07,48,11.50
2009,05,19,07,49,11.50
2009,05,19,07,50,11.40
2009,05,19,07,51,11.30
2009,05,19,07,52,11.20
2009,05,19,07,53,11.20
2009,05,19,07,54,11.10
2009,05,19,07,55,11.10
2009,05,19,07,56,11.00
2009,05,19,07,57,10.90
2009,05,19,07,58,10.90
2009,05,19,07,59,10.90
2009,05,19,08,00,10.90
2009,05,19,08,01,10.90
2009,05,19,08,02,10.90
2009,05,19,08,03,10.90
2009,05,19,08,04,10.80
2009,05,19,08,05,10.70
2009,05,19,08,06,10.70
2009,05,19,08,07,10.60
2009,05,19,08,08,10.60
2009,05,19,08,09,10.60
2009,05,19,08,10,10.60
2009,05,19,08,11,10.60
2009,05,19,08,12,10.60
2009,05,19,08,13,10.60
2009,05,19,08,14,10.60
2009,05,19,08,15,10.60
2009,05,19,08,16,10.70
2009,05,19,08,17,10.70
2009,05,19,08,18,10.80
2009,05,19,08,19,10.80
2009,05,19,08,20,10.90
2009,05,19,08,21,11.00
2009,05,19,08,22,11.10
2009,05,19,08,23,11.20
2009,05,19,08,24,11.30
2009,05,19,08,25,11.30
2009,05,19,08,26,11.30
2009,05,19,08,27,11.30
2009,05,19,08,28,11.40
2009,05,19,08,29,11.50
2009,05,19,08,30,11.50
2009,05,19,08,31,11.60
2009,05,19,08,32,11.70
2009,05,19,08,33,11.70
2009,05,19,08,34,11.70
2009,05,19,08,35,11.70
2009,05,19,08,36,11.70
2009,05,19,08,37,11.70
2009,05,19,08,38,11.70
2009,05,19,08,39,11.70
2009,05,19,08,40,11.70
2009,05,19,08,41,11.70
2009,05,19,08,42,11.70
2009,05,19,08,43,11.70
2009,05,19,08,44,11.60
2009,05,19,08,45,11.60
2009,05,19,08,46,11.70
2009,05,19,08,47,11.70
2009,05,19,08,48,11.70
2009,05,19,08,49,11.70
2009,05,19,08,50,11.70
2009,05,19,08,51,11.70
2009,05,19,08,52,11.60
2009,05,19,08,53,11.70
2009,05,19,08,54,11.70
2009,05,19,08,55,11.80
2009,05,19,08,56,11.90
2009,05,19,08,57,11.90
2009,05,19,08,58,11.80
2009,05,19,08,59,11.70
2009,05,19,09,00,11.70
2009,05,19,09,01,11.70
2009,05,19,09,02,11.60
2009,05,19,09,03,11.60
2009,05,19,09,04,11.50
2009,05,19,09,05,11.50
2009,05,19,09,06,11.40
2009,05,19,09,07,11.40
2009,05,19,09,08,11.40
2009,05,19,09,09,11.40
2009,05,19,09,10,11.40
2009,05,19,09,11,11.40
2009,05,19,09,12,11.30
2009,05,19,09,13,11.30
2009,05,19,09,14,11.30
2009,05,19,09,15,11.30
2009,05,19,09,16,11.20
2009,05,19,09,17,11.20
2009,05,19,09,18,11.10
2009,05,19,09,19,11.10
2009,05,19,09,20,11.20
2009,05,19,09,21,11.30
2009,05,19,09,22,11.40
2009,05,19,09,23,11.50
2009,05,19,09,24,11.60
2009,05,19,09,25,11.70
2009,05,19,09,26,11.70
2009,05,19,09,27,11.80
2009,05,19,09,28,11.80
2009,05,19,09,29,11.80
2009,05,19,09,30,11.80
2009,05,19,09,31,11.70
2009,05,19,09,32,11.60
2009,05,19,09,33,11.60
2009,05,19,09,34,11.60
2009,05,19,09,35,11.60
2009,05,19,09,36,11.50
2009,05,19,09,37,11.50
2009,05,19,09,38,11.40
2009,05,19,09,39,11.40
2009,05,19,09,40,11.30
2009,05,19,09,41,11.30
2009,05,19,09,42,11.30
2009,05,19,09,43,11.30
2009,05,19,09,44,11.40
2009,05,19,09,45,11.50
2009,05,19,09,46,11.60
2009,05,19,09,47,11.70
2009,05,19,09,48,11.70
2009,05,19,09,49,11.80
2009,05,19,09,50,11.80
2009,05,19,09,51,11.80
2009,05,19,09,52,11.80
2009,05,19,09,53,11.90
2009,05,19,09,54,11.90
2009,05,19,09,55,11.80
2009,05,19,09,56,11.70
2009,05,19,09,57,11.70
2009,05,19,09,58,11.70
2009,05,19,09,59,11.80
2009,05,19,10,00,11.90
2009,05,19,10,01,12.10
2009,05,19,10,02,12.20
2009,05,19,10,03,12.30
2009,05,19,10,04,12.40
2009,05,19,10,05,12.40
2009,05,19,10,06,12.40
2009,05,19,10,07,12.40
2009,05,19,10,08,12.40
2009,05,19,10,09,12.40
2009,05,19,10,10,12.40
2009,05,19,10,11,12.30
2009,05,19,10,12,12.30
2009,05,19,10,13,12.30
2009,05,19,10,14,12.20
2009,05,19,10,15,12.20
2009,05,19,10,16,12.20
2009,05,19,10,17,12.10
2009,05,19,10,18,12.10
2009,05,19,10,19,12.10
2009,05,19,10,20,12.00
2009,05,19,10,21,11.90
2009,05,19,10,22,11.80
2009,05,19,10,23,11.80
2009,05,19,10,24,11.80
2009,05,19,10,25,11.70
2009,05,19,10,26,11.60
2009,05,19,10,27,11.60
2009,05,19,10,28,11.50
2009,05,19,10,29,11.50
2009,05,19,10,30,11.40
2009,05,19,10,31,11.30
2009,05,19,10,32,11.30
2009,05,19,10,33,11.30
2009,05,19,10,34,11.30
2009,05,19,10,35,11.30
2009,05,19,10,36,11.30
2009,05,19,10,37,11.30
2009,05,19,10,38,11.30
2009,05,19,10,39,11.30
2009,05,19,10,40,11.20
2009,05,19,10,41,11.20
2009,05,19,10,42,11.10
2009,05,19,10,43,11.10
2009,05,19,10,44,11.10
2009,05,19,10,45,11.10
2009,05,19,10,46,11.10
2009,05,19,10,47,11.10
2009,05,19,10,48,11.20
2009,05,19,10,49,11.20
2009,05,19,10,50,11.30
2009,05,19,10,51,11.40
2009,05,19,10,52,11.50
2009,05,19,10,53,11.60
2009,05,19,10,54,11.80
2009,05,19,10,55,11.90
2009,05,19,10,56,11.90
2009,05,19,10,57,11.90
2009,05,19,10,58,12.00
2009,05,19,10,59,12.10
2009,05,19,11,00,12.10
2009,05,19,11,01,12.00
2009,05,19,11,02,11.90
2009,05,19,11,03,11.80
2009,05,19,11,04,11.60
2009,05,19,11,05,11.60
2009,05,19,11,06,11.50
2009,05,19,11,07,11.40
2009,05,19,11,08,11.40
2009,05,19,11,09,11.40
2009,05,19,11,10,11.40
2009,05,19,11,11,11.40
2009,05,19,11,12,11.40
2009,05,19,11,13,11.40
2009,05,19,11,14,11.50
2009,05,19,11,15,11.60
2009,05,19,11,16,11.70
2009,05,19,11,17,11.80
2009,05,19,11,18,11.80
2009,05,19,11,19,11.90
2009,05,19,11,20,12.10
2009,05,19,11,21,12.20
2009,05,19,11,22,12.30
2009,05,19,11,23,12.40
2009,05,19,11,24,12.40
2009,05,19,11,25,12.40
2009,05,19,11,26,12.40
2009,05,19,11,27,12.40
2009,05,19,11,28,12.40
2009,05,19,11,29,12.40
2009,05,19,11,30,12.40
2009,05,19,11,31,12.40
2009,05,19,11,32,12.40
2009,05,19,11,33,12.50
2009,05,19,11,34,12.70
2009,05,19,11,35,12.80
2009,05,19,11,36,12.90
2009,05,19,11,37,12.90
2009,05,19,11,38,12.90
2009,05,19,11,39,12.90
2009,05,19,11,40,12.80
2009,05,19,11,41,12.80
2009,05,19,11,42,12.70
2009,05,19,11,43,12.50
2009,05,19,11,44,12.40
2009,05,19,11,45,12.30
2009,05,19,11,46,12.30
2009,05,19,11,47,12.30
2009,05,19,11,48,12.30
2009,05,19,11,49,12.40
2009,05,19,11,50,12.40
2009,05,19,11,51,12.40
2009,05,19,11,52,12.30
2009,05,19,11,53,12.20
2009,05,19,11,54,12.20
2009,05,19,11,55,12.20
2009,05,19,11,56,12.20
2009,05,19,11,57,12.20
2009,05,19,11,58,12.20
2009,05,19,11,59,12.10
2009,05,19,12,00,11.90
2009,05,19,12,01,11.90
2009,05,19,12,02,11.80
2009,05,19,12,03,11.70
2009,05,19,12,04,11.70
2009,05,19,12,05,11.70
2009,05,19,12,06,11.70
2009,05,19,12,07,11.70
2009,05,19,12,08,11.80
2009,05,19,12,09,11.90
2009,05,19,12,10,12.00
2009,05,19,12,11,12.10
2009,05,19,12,12,12.30
2009,05,19,12,13,12.40
2009,05,19,12,14,12.50
2009,05,19,12,15,12.70
2009,05,19,12,16,12.90
2009,05,19,12,17,13.00
2009,05,19,12,18,13.10
2009,05,19,12,19,13.00
2009,05,19,12,20,12.80
2009,05,19,12,21,12.70
2009,05,19,12,22,12.70
2009,05,19,12,23,12.60
2009,05,19,12,24,12.50
2009,05,19,12,25,12.40
2009,05,19,12,26,12.30
2009,05,19,12,27,12.20
2009,05,19,12,28,12.20
2009,05,19,12,29,12.20
2009,05,19,12,30,12.30
2009,05,19,12,31,12.40
2009,05,19,12,32,12.40
2009,05,19,12,33,12.50
2009,05,19,12,34,12.50
2009,05,19,12,35,12.60
2009,05,19,12,36,12.60
2009,05,19,12,37,12.70
2009,05,19,12,38,12.70
2009,05,19,12,39,12.80
2009,05,19,12,40,12.80
2009,05,19,12,41,12.80
2009,05,19,12,42,12.80
2009,05,19,12,43,12.80
2009,05,19,12,44,12.80
2009,05,19,12,45,12.80
2009,05,19,12,46,12.60
2009,05,19,12,47,12.50
2009,05,19,12,48,12.40
2009,05,19,12,49,12.40
2009,05,19,12,50,12.50
2009,05,19,12,51,12.50
2009,05,19,12,52,12.50
2009,05,19,12,53,12.40
2009,05,19,12,54,12.40
2009,05,19,12,55,12.40
2009,05,19,12,56,12.40
2009,05,19,12,57,12.40
2009,05,19,12,58,12.30
2009,05,19,12,59,12.30
2009,05,19,13,00,12.30
2009,05,19,13,01,12.20
2009,05,19,13,02,12.10
2009,05,19,13,03,12.00
2009,05,19,13,04,11.90
2009,05,19,13,05,11.90
2009,05,19,13,06,11.80
2009,05,19,13,07,11.70
2009,05,19,13,08,11.60
2009,05,19,13,09,11.60
2009,05,19,13,10,11.60
2009,05,19,13,11,11.60
2009,05,19,13,12,11.60
2009,05,19,13,13,11.70
2009,05,19,13,14,11.80
2009,05,19,13,15,11.90
2009,05,19,13,16,12.10
2009,05,19,13,17,12.20
2009,05,19,13,18,12.40
2009,05,19,13,19,12.50
2009,05,19,13,20,12.50
2009,05,19,13,21,12.50
2009,05,19,13,22,12.40
2009,05,19,13,23,12.40
2009,05,19,13,24,12.30
2009,05,19,13,25,12.30
2009,05,19,13,26,12.30
2009,05,19,13,27,12.30
2009,05,19,13,28,12.30
2009,05,19,13,29,12.40
2009,05,19,13,30,12.40
2009,05,19,13,31,12.40
2009,05,19,13,32,12.30
2009,05,19,13,33,12.20
2009,05,19,13,34,12.10
2009,05,19,13,35,12.00
2009,05,19,13,36,11.90
2009,05,19,13,37,11.80
2009,05,19,13,38,11.70
2009,05,19,13,39,11.60
2009,05,19,13,40,11.60
2009,05,19,13,41,11.50
2009,05,19,13,42,11.50
2009,05,19,13,43,11.40
2009,05,19,13,44,11.30
2009,05,19,13,45,11.20
2009,05,19,13,46,11.20
2009,05,19,13,47,11.20
2009,05,19,13,48,11.10
2009,05,19,13,49,11.10
2009,05,19,13,50,11.00
2009,05,19,13,51,11.00
2009,05,19,13,52,11.00
2009,05,19,13,53,11.00
2009,05,19,13,54,11.00
2009,05,19,13,55,11.10
2009,05,19,13,56,11.10
2009,05,19,13,57,11.10
2009,05,19,13,58,11.10
2009,05,19,13,59,11.20
2009,05,19,14,00,11.20
2009,05,19,14,01,11.20
2009,05,19,14,02,11.20
2009,05,19,14,03,11.20
2009,05,19,14,04,11.10
2009,05,19,14,05,11.10
2009,05,19,14,06,11.10
2009,05,19,14,07,11.10
2009,05,19,14,08,11.10
2009,05,19,14,09,11.10
2009,05,19,14,10,11.00
2009,05,19,14,11,10.90
2009,05,19,14,12,10.80
2009,05,19,14,13,10.80
2009,05,19,14,14,10.70
2009,05,19,14,15,10.60
2009,05,19,14,16,10.60
2009,05,19,14,17,10.50
2009,05,19,14,18,10.50
2009,05,19,14,19,10.40
2009,05,19,14,20,10.30
2009,05,19,14,21,10.30
2009,05,19,14,22,10.30
2009,05,19,14,23,10.30
2009,05,19,14,24,10.30
2009,05,19,14,25,10.30
2009,05,19,14,26,10.30
2009,05,19,14,27,10.30
2009,05,19,14,28,10.20
2009,05,19,14,29,10.20
2009,05,19,14,30,10.20
2009,05,19,14,31,10.20
2009,05,19,14,32,10.30
2009,05,19,14,33,10.30
2009,05,19,14,34,10.30
2009,05,19,14,35,10.30
2009,05,19,14,36,10.40
2009,05,19,14,37,10.40
2009,05,19,14,38,10.50
2009,05,19,14,39,10.60
2009,05,19,14,40,10.70
2009,05,19,14,41,10.80
2009,05,19,14,42,10.80
2009,05,19,14,43,10.80
2009,05,19,14,44,10.90
2009,05,19,14,45,10.90
2009,05,19,14,46,10.90
2009,05,19,14,47,11.00
2009,05,19,14,48,11.00
2009,05,19,14,49,11.00
2009,05,19,14,50,11.10
2009,05,19,14,51,11.10
2009,05,19,14,52,11.20
2009,05,19,14,53,11.20
2009,05,19,14,54,11.30
2009,05,19,14,55,11.30
2009,05,19,14,56,11.30
2009,05,19,14,57,11.30
2009,05,19,14,58,11.40
2009,05,19,14,59,11.40
2009,05,19,15,00,11.50
2009,05,19,15,01,11.50
2009,05,19,15,02,11.60
2009,05,19,15,03,11.50
2009,05,19,15,04,11.50
2009,05,19,15,05,11.40
2009,05,19,15,06,11.40
2009,05,19,15,07,11.30
2009,05,19,15,08,11.20
2009,05,19,15,09,11.20
2009,05,19,15,10,11.20
2009,05,19,15,11,11.20
2009,05,19,15,12,11.30
2009,05,19,15,13,11.30
2009,05,19,15,14,11.30
2009,05,19,15,15,11.30
2009,05,19,15,16,11.40
2009,05,19,15,17,11.50
2009,05,19,15,18,11.60
2009,05,19,15,19,11.60
2009,05,19,15,20,11.70
2009,05,19,15,21,11.80
2009,05,19,15,22,11.90
2009,05,19,15,23,12.00
2009,05,19,15,24,12.00
2009,05,19,15,25,12.00
2009,05,19,15,26,12.10
2009,05,19,15,27,12.10
2009,05,19,15,28,12.10
2009,05,19,15,29,12.20
2009,05,19,15,30,12.30
2009,05,19,15,31,12.40
2009,05,19,15,32,12.50
2009,05,19,15,33,12.60
2009,05,19,15,34,12.70
2009,05,19,15,35,12.80
2009,05,19,15,36,12.90
2009,05,19,15,37,13.00
2009,05,19,15,38,13.10
2009,05,19,15,39,13.10
2009,05,19,15,40,13.00
2009,05,19,15,41,12.90
2009,05,19,15,42,12.70
2009,05,19,15,43,12.60
2009,05,19,15,44,12.50
2009,05,19,15,45,12.50
2009,05,19,15,46,12.50
2009,05,19,15,47,12.50
2009,05,19,15,48,12.50
2009,05,19,15,49,12.50
2009,05,19,15,50,12.50
2009,05,19,15,51,12.50
2009,05,19,15,52,12.40
2009,05,19,15,53,12.40
2009,05,19,15,54,12.50
2009,05,19,15,55,12.50
2009,05,19,15,56,12.50
2009,05,19,15,57,12.50
2009,05,19,15,58,12.50
2009,05,19,15,59,12.40
2009,05,19,16,00,12.40
2009,05,19,16,01,12.30
2009,05,19,16,02,12.30
2009,05,19,16,03,12.30
2009,05,19,16,04,12.30
2009,05,19,16,05,12.30
2009,05,19,16,06,12.40
2009,05,19,16,07,12.40
2009,05,19,16,08,12.40
2009,05,19,16,09,12.40
2009,05,19,16,10,12.40
2009,05,19,16,11,12.40
2009,05,19,16,12,12.40
2009,05,19,16,13,12.40
2009,05,19,16,14,12.40
2009,05,19,16,15,12.40
2009,05,19,16,16,12.40
2009,05,19,16,17,12.40
2009,05,19,16,18,12.50
2009,05,19,16,19,12.50
2009,05,19,16,20,12.50
2009,05,19,16,21,12.50
2009,05,19,16,22,12.50
2009,05,19,16,23,12.50
2009,05,19,16,24,12.50
2009,05,19,16,25,12.50
2009,05,19,16,26,12.60
2009,05,19,16,27,12.50
2009,05,19,16,28,12.50
2009,05,19,16,29,12.40
2009,05,19,16,30,12.30
2009,05,19,16,31,12.10
2009,05,19,16,32,12.00
2009,05,19,16,33,11.90
2009,05,19,16,34,11.90
2009,05,19,16,35,11.80
2009,05,19,16,36,11.80
2009,05,19,16,37,11.70
2009,05,19,16,38,11.70
2009,05,19,16,39,11.70
2009,05,19,16,40,11.70
2009,05,19,16,41,11.70
2009,05,19,16,42,11.60
2009,05,19,16,43,11.50
2009,05,19,16,44,11.30
2009,05,19,16,45,11.00
2009,05,19,16,46,10.80
2009,05,19,16,47,10.60
2009,05,19,16,48,10.40
2009,05,19,16,49,10.20
2009,05,19,16,50,10.10
2009,05,19,16,51,10.00
2009,05,19,16,52,9.90
2009,05,19,16,53,9.90
2009,05,19,16,54,9.90
2009,05,19,16,55,9.80
2009,05,19,16,56,9.80
2009,05,19,16,57,9.80
2009,05,19,16,58,9.80
2009,05,19,16,59,9.80
2009,05,19,17,00,9.80
2009,05,19,17,01,9.80
2009,05,19,17,02,9.80
2009,05,19,17,03,9.80
2009,05,19,17,04,9.80
2009,05,19,17,05,9.80
2009,05,19,17,06,9.80
2009,05,19,17,07,9.80
2009,05,19,17,08,9.80
2009,05,19,17,09,9.80
2009,05,19,17,10,9.80
2009,05,19,17,11,9.80
2009,05,19,17,12,9.80
2009,05,19,17,13,9.80
2009,05,19,17,14,9.80
2009,05,19,17,15,9.80
2009,05,19,17,16,9.80
2009,05,19,17,17,9.90
2009,05,19,17,18,9.90
2009,05,19,17,19,9.90
2009,05,19,17,20,10.00
2009,05,19,17,21,10.00
2009,05,19,17,22,10.00
2009,05,19,17,23,10.10
2009,05,19,17,24,10.10
2009,05,19,17,25,10.10
2009,05,19,17,26,10.10
2009,05,19,17,27,10.10
2009,05,19,17,28,10.20
2009,05,19,17,29,10.20
2009,05,19,17,30,10.30
2009,05,19,17,31,10.30
2009,05,19,17,32,10.30
2009,05,19,17,33,10.30
2009,05,19,17,34,10.30
2009,05,19,17,35,10.30
2009,05,19,17,36,10.40
2009,05,19,17,37,10.40
2009,05,19,17,38,10.40
2009,05,19,17,39,10.50
2009,05,19,17,40,10.50